Time,TemperatureF,DewpointF,PressureIn,WindDirection,WindDirectionDegrees,WindSpeedMPH,WindSpeedGustMPH,Humidity,HourlyPrecipIn,Conditions,Clouds,dailyrainin,SoftwareType,DateUTC
2013-06-01 00:00:00,77.1,64.4,30.03,WSW,249,1.0,7.0,65,0.00,,---,0.00,VWS V14.01,2013-06-01 04:00:00,
2013-06-01 00:01:00,75.2,64.8,30.03,SW,219,4.0,5.0,70,0.00,,---,0.00,VWS V14.01,2013-06-01 04:01:00,
2013-06-01 00:06:00,75.0,64.6,30.03,WSW,255,1.0,5.0,70,0.00,,---,0.00,VWS V14.01,2013-06-01 04:06:00,
2013-06-01 00:10:00,74.7,64.7,30.03,West,267,1.0,5.0,71,0.00,,---,0.00,VWS V14.01,2013-06-01 04:10:00,
2013-06-01 00:11:00,74.6,64.6,30.03,WSW,240,0.0,4.0,71,0.00,,---,0.00,VWS V14.01,2013-06-01 04:11:00,
2013-06-01 00:16:00,74.5,64.5,30.03,West,259,1.0,4.0,71,0.00,,---,0.00,VWS V14.01,2013-06-01 04:16:00,
2013-06-01 00:20:00,74.4,64.4,30.03,WSW,249,0.0,4.0,71,0.00,,---,0.00,VWS V14.01,2013-06-01 04:20:00,
2013-06-01 00:21:00,74.3,64.3,30.03,WSW,249,0.0,0.0,71,0.00,,---,0.00,VWS V14.01,2013-06-01 04:21:00,
2013-06-01 00:26:00,74.0,64.4,30.03,WNW,288,1.0,2.0,72,0.00,,---,0.00,VWS V14.01,2013-06-01 04:26:00,
2013-06-01 00:30:00,73.9,64.3,30.03,WNW,286,0.0,2.0,72,0.00,,---,0.00,VWS V14.01,2013-06-01 04:30:00,
2013-06-01 00:31:00,73.8,64.2,30.02,WNW,286,0.0,1.0,72,0.00,,---,0.00,VWS V14.01,2013-06-01 04:31:00,
2013-06-01 00:36:00,73.5,64.3,30.03,WNW,285,0.0,1.0,73,0.00,,---,0.00,VWS V14.01,2013-06-01 04:36:00,
2013-06-01 00:40:00,73.2,64.0,30.03,WNW,290,0.0,1.0,73,0.00,,---,0.00,VWS V14.01,2013-06-01 04:40:00,
2013-06-01 00:41:00,73.2,64.4,30.03,WNW,288,0.0,1.0,74,0.00,,---,0.00,VWS V14.01,2013-06-01 04:41:00,
2013-06-01 00:46:00,73.0,64.2,30.03,NW,305,0.0,2.0,74,0.00,,---,0.00,VWS V14.01,2013-06-01 04:46:00,
2013-06-01 00:50:00,72.8,64.0,30.03,NW,317,0.0,2.0,74,0.00,,---,0.00,VWS V14.01,2013-06-01 04:50:00,
2013-06-01 00:51:00,72.7,63.9,30.03,NW,316,0.0,0.0,74,0.00,,---,0.00,VWS V14.01,2013-06-01 04:51:00,
2013-06-01 00:56:00,72.6,64.2,30.03,NW,325,0.0,1.0,75,0.00,,---,0.00,VWS V14.01,2013-06-01 04:56:00,
2013-06-01 01:00:00,72.3,64.3,30.02,NNW,327,0.0,1.0,76,0.00,,---,0.00,VWS V14.01,2013-06-01 05:00:00,
2013-06-01 01:01:00,72.1,64.1,30.02,NW,325,3.0,3.0,76,0.00,,---,0.00,VWS V14.01,2013-06-01 05:01:00,
2013-06-01 01:06:00,71.8,63.8,30.03,WNW,299,0.0,3.0,76,0.00,,---,0.00,VWS V14.01,2013-06-01 05:06:00,
2013-06-01 01:10:00,71.4,64.2,30.02,North,7,1.0,3.0,78,0.00,,---,0.00,VWS V14.01,2013-06-01 05:10:00,
2013-06-01 01:11:00,71.1,63.9,30.02,North,4,1.0,2.0,78,0.00,,---,0.00,VWS V14.01,2013-06-01 05:11:00,
2013-06-01 01:16:00,70.6,64.1,30.02,NNE,20,1.0,2.0,80,0.00,,---,0.00,VWS V14.01,2013-06-01 05:16:00,
2013-06-01 01:20:00,70.2,63.8,30.02,NNE,21,0.0,2.0,80,0.00,,---,0.00,VWS V14.01,2013-06-01 05:20:00,
2013-06-01 01:21:00,70.1,64.0,30.02,NNE,20,0.0,1.0,81,0.00,,---,0.00,VWS V14.01,2013-06-01 05:21:00,
2013-06-01 01:26:00,70.0,63.9,30.02,NNE,25,0.0,1.0,81,0.00,,---,0.00,VWS V14.01,2013-06-01 05:26:00,
2013-06-01 01:30:00,69.9,63.8,30.02,NNE,25,0.0,1.0,81,0.00,,---,0.00,VWS V14.01,2013-06-01 05:30:00,
2013-06-01 01:31:00,69.8,63.7,30.02,NNE,25,0.0,0.0,81,0.00,,---,0.00,VWS V14.01,2013-06-01 05:31:00,
2013-06-01 01:36:00,69.4,63.7,30.01,NNE,25,0.0,1.0,82,0.00,,---,0.00,VWS V14.01,2013-06-01 05:36:00,
2013-06-01 01:40:00,69.2,63.5,30.01,NNE,25,0.0,1.0,82,0.00,,---,0.00,VWS V14.01,2013-06-01 05:40:00,
2013-06-01 01:41:00,69.1,63.7,30.01,NNE,25,0.0,0.0,83,0.00,,---,0.00,VWS V14.01,2013-06-01 05:41:00,
2013-06-01 01:46:00,69.0,63.6,30.01,NNE,25,0.0,1.0,83,0.00,,---,0.00,VWS V14.01,2013-06-01 05:46:00,
2013-06-01 01:50:00,69.0,63.3,30.01,NNE,23,0.0,1.0,82,0.00,,---,0.00,VWS V14.01,2013-06-01 05:50:00,
2013-06-01 01:51:00,68.9,63.2,30.01,NNE,23,0.0,0.0,82,0.00,,---,0.00,VWS V14.01,2013-06-01 05:51:00,
2013-06-01 01:56:00,68.7,63.3,30.01,WNW,283,0.0,1.0,83,0.00,,---,0.00,VWS V14.01,2013-06-01 05:56:00,
2013-06-01 02:00:00,68.6,63.2,30.02,WNW,282,0.0,1.0,83,0.00,,---,0.00,VWS V14.01,2013-06-01 06:00:00,
2013-06-01 02:01:00,68.5,63.5,30.02,WNW,282,0.0,0.0,84,0.00,,---,0.00,VWS V14.01,2013-06-01 06:01:00,
2013-06-01 02:06:00,68.6,63.2,30.02,WNW,282,0.0,1.0,83,0.00,,---,0.00,VWS V14.01,2013-06-01 06:06:00,
2013-06-01 02:10:00,68.5,63.1,30.02,WNW,283,0.0,1.0,83,0.00,,---,0.00,VWS V14.01,2013-06-01 06:10:00,
2013-06-01 02:11:00,68.4,63.4,30.02,WNW,283,0.0,1.0,84,0.00,,---,0.00,VWS V14.01,2013-06-01 06:11:00,
2013-06-01 02:16:00,68.3,63.3,30.02,WNW,283,0.0,1.0,84,0.00,,---,0.00,VWS V14.01,2013-06-01 06:16:00,
2013-06-01 02:20:00,68.4,63.4,30.01,WNW,282,0.0,1.0,84,0.00,,---,0.00,VWS V14.01,2013-06-01 06:20:00,
2013-06-01 02:21:00,68.3,63.3,30.01,WNW,283,0.0,0.0,84,0.00,,---,0.00,VWS V14.01,2013-06-01 06:21:00,
2013-06-01 02:26:00,68.5,63.5,30.01,West,274,0.0,1.0,84,0.00,,---,0.00,VWS V14.01,2013-06-01 06:26:00,
2013-06-01 02:30:00,68.7,63.7,30.01,West,264,0.0,1.0,84,0.00,,---,0.00,VWS V14.01,2013-06-01 06:30:00,
2013-06-01 02:31:00,68.9,63.5,30.01,West,276,0.0,1.0,83,0.00,,---,0.00,VWS V14.01,2013-06-01 06:31:00,
2013-06-01 02:36:00,69.2,63.8,30.01,West,277,0.0,1.0,83,0.00,,---,0.00,VWS V14.01,2013-06-01 06:36:00,
2013-06-01 02:40:00,69.2,63.5,30.01,West,276,0.0,1.0,82,0.00,,---,0.00,VWS V14.01,2013-06-01 06:40:00,
2013-06-01 02:41:00,69.1,63.7,30.01,West,277,0.0,0.0,83,0.00,,---,0.00,VWS V14.01,2013-06-01 06:41:00,
2013-06-01 02:46:00,69.0,63.6,30.01,West,268,0.0,1.0,83,0.00,,---,0.00,VWS V14.01,2013-06-01 06:46:00,
2013-06-01 02:50:00,69.0,63.6,30.01,West,262,0.0,1.0,83,0.00,,---,0.00,VWS V14.01,2013-06-01 06:50:00,
2013-06-01 02:51:00,69.1,63.7,30.01,WSW,252,0.0,0.0,83,0.00,,---,0.00,VWS V14.01,2013-06-01 06:51:00,
2013-06-01 02:56:00,69.0,63.6,30.01,WSW,252,0.0,1.0,83,0.00,,---,0.00,VWS V14.01,2013-06-01 06:56:00,
2013-06-01 03:00:00,69.1,63.7,30.01,WSW,253,0.0,1.0,83,0.00,,---,0.00,VWS V14.01,2013-06-01 07:00:00,
2013-06-01 03:01:00,69.1,63.7,30.01,WSW,252,0.0,0.0,83,0.00,,---,0.00,VWS V14.01,2013-06-01 07:01:00,
2013-06-01 03:06:00,69.0,63.6,30.01,West,273,0.0,1.0,83,0.00,,---,0.00,VWS V14.01,2013-06-01 07:06:00,
2013-06-01 03:10:00,68.8,63.8,30.01,NW,316,0.0,1.0,84,0.00,,---,0.00,VWS V14.01,2013-06-01 07:10:00,
2013-06-01 03:11:00,68.8,63.8,30.01,NW,324,0.0,1.0,84,0.00,,---,0.00,VWS V14.01,2013-06-01 07:11:00,
2013-06-01 03:16:00,68.6,63.6,30.01,NW,304,0.0,1.0,84,0.00,,---,0.00,VWS V14.01,2013-06-01 07:16:00,
2013-06-01 03:20:00,68.5,63.5,30.01,NW,305,0.0,1.0,84,0.00,,---,0.00,VWS V14.01,2013-06-01 07:20:00,
2013-06-01 03:21:00,68.4,63.4,30.01,NW,305,0.0,0.0,84,0.00,,---,0.00,VWS V14.01,2013-06-01 07:21:00,
2013-06-01 03:26:00,68.3,63.6,30.01,NW,305,0.0,0.0,85,0.00,,---,0.00,VWS V14.01,2013-06-01 07:26:00,
2013-06-01 03:30:00,68.3,63.6,30.00,NW,305,0.0,0.0,85,0.00,,---,0.00,VWS V14.01,2013-06-01 07:30:00,
2013-06-01 03:31:00,68.1,63.4,30.00,NW,305,0.0,0.0,85,0.00,,---,0.00,VWS V14.01,2013-06-01 07:31:00,
2013-06-01 03:36:00,68.0,63.7,30.01,NW,305,0.0,0.0,86,0.00,,---,0.00,VWS V14.01,2013-06-01 07:36:00,
2013-06-01 03:40:00,68.0,63.7,30.00,NW,304,0.0,0.0,86,0.00,,---,0.00,VWS V14.01,2013-06-01 07:40:00,
2013-06-01 03:41:00,68.0,63.7,30.01,NW,321,1.0,1.0,86,0.00,,---,0.00,VWS V14.01,2013-06-01 07:41:00,
2013-06-01 03:46:00,68.0,63.7,30.00,NNW,340,0.0,2.0,86,0.00,,---,0.00,VWS V14.01,2013-06-01 07:46:00,
2013-06-01 03:50:00,68.0,63.7,30.00,NNW,340,0.0,2.0,86,0.00,,---,0.00,VWS V14.01,2013-06-01 07:50:00,
2013-06-01 03:51:00,68.1,63.8,30.00,NNW,340,0.0,1.0,86,0.00,,---,0.00,VWS V14.01,2013-06-01 07:51:00,
2013-06-01 03:56:00,68.0,63.7,30.00,NNW,333,0.0,1.0,86,0.00,,---,0.00,VWS V14.01,2013-06-01 07:56:00,
2013-06-01 04:00:00,68.0,63.7,30.00,NW,321,0.0,1.0,86,0.00,,---,0.00,VWS V14.01,2013-06-01 08:00:00,
2013-06-01 04:01:00,68.0,63.7,30.00,NW,323,0.0,0.0,86,0.00,,---,0.00,VWS V14.01,2013-06-01 08:01:00,
2013-06-01 04:06:00,67.9,63.6,30.00,NW,316,0.0,1.0,86,0.00,,---,0.00,VWS V14.01,2013-06-01 08:06:00,
2013-06-01 04:10:00,67.8,63.5,30.00,NW,316,0.0,1.0,86,0.00,,---,0.00,VWS V14.01,2013-06-01 08:10:00,
2013-06-01 04:11:00,67.7,63.7,30.00,NW,316,0.0,0.0,87,0.00,,---,0.00,VWS V14.01,2013-06-01 08:11:00,
2013-06-01 04:16:00,67.7,63.7,30.00,NW,311,0.0,1.0,87,0.00,,---,0.00,VWS V14.01,2013-06-01 08:16:00,
2013-06-01 04:20:00,67.6,63.6,30.00,NW,311,0.0,1.0,87,0.00,,---,0.00,VWS V14.01,2013-06-01 08:20:00,
2013-06-01 04:21:00,67.6,63.6,30.00,WNW,285,0.0,0.0,87,0.00,,---,0.00,VWS V14.01,2013-06-01 08:21:00,
2013-06-01 04:26:00,67.5,63.5,30.00,West,281,0.0,1.0,87,0.00,,---,0.00,VWS V14.01,2013-06-01 08:26:00,
2013-06-01 04:30:00,67.4,63.4,30.00,West,281,0.0,1.0,87,0.00,,---,0.00,VWS V14.01,2013-06-01 08:30:00,
2013-06-01 04:31:00,67.4,63.4,30.00,WNW,282,1.0,1.0,87,0.00,,---,0.00,VWS V14.01,2013-06-01 08:31:00,
2013-06-01 04:36:00,67.5,63.8,30.00,West,281,0.0,1.0,88,0.00,,---,0.00,VWS V14.01,2013-06-01 08:36:00,
2013-06-01 04:40:00,67.5,63.5,30.00,WNW,294,0.0,1.0,87,0.00,,---,0.00,VWS V14.01,2013-06-01 08:40:00,
2013-06-01 04:41:00,67.5,63.5,30.00,WNW,295,0.0,0.0,87,0.00,,---,0.00,VWS V14.01,2013-06-01 08:41:00,
2013-06-01 04:46:00,67.1,63.4,30.00,ENE,58,0.0,1.0,88,0.00,,---,0.00,VWS V14.01,2013-06-01 08:46:00,
2013-06-01 04:50:00,66.9,63.2,30.00,ENE,58,0.0,1.0,88,0.00,,---,0.00,VWS V14.01,2013-06-01 08:50:00,
2013-06-01 04:51:00,66.8,63.5,30.00,ENE,58,0.0,0.0,89,0.00,,---,0.00,VWS V14.01,2013-06-01 08:51:00,
2013-06-01 04:56:00,66.4,63.1,30.00,ENE,77,0.0,1.0,89,0.00,,---,0.00,VWS V14.01,2013-06-01 08:56:00,
2013-06-01 05:00:00,66.2,63.2,30.00,East,82,2.0,2.0,90,0.00,,---,0.00,VWS V14.01,2013-06-01 09:00:00,
2013-06-01 05:01:00,66.1,63.1,30.00,East,82,1.0,2.0,90,0.00,,---,0.00,VWS V14.01,2013-06-01 09:01:00,
2013-06-01 05:06:00,65.9,63.2,30.00,East,82,0.0,2.0,91,0.00,,---,0.00,VWS V14.01,2013-06-01 09:06:00,
2013-06-01 05:10:00,65.8,63.1,30.00,East,82,0.0,2.0,91,0.00,,---,0.00,VWS V14.01,2013-06-01 09:10:00,
2013-06-01 05:11:00,65.7,63.0,30.00,East,82,0.0,0.0,91,0.00,,---,0.00,VWS V14.01,2013-06-01 09:11:00,
2013-06-01 05:16:00,65.4,62.7,30.01,East,82,0.0,0.0,91,0.00,,---,0.00,VWS V14.01,2013-06-01 09:16:00,
2013-06-01 05:20:00,65.2,62.5,30.01,East,82,1.0,1.0,91,0.00,,---,0.00,VWS V14.01,2013-06-01 09:20:00,
2013-06-01 05:21:00,65.2,62.8,30.01,East,97,1.0,1.0,92,0.00,,---,0.00,VWS V14.01,2013-06-01 09:21:00,
2013-06-01 05:26:00,64.9,62.5,30.01,East,84,2.0,2.0,92,0.00,,---,0.00,VWS V14.01,2013-06-01 09:26:00,
2013-06-01 05:30:00,64.9,62.8,30.01,ENE,75,1.0,3.0,93,0.00,,---,0.00,VWS V14.01,2013-06-01 09:30:00,
2013-06-01 05:31:00,65.1,63.0,30.01,East,85,0.0,2.0,93,0.00,,---,0.00,VWS V14.01,2013-06-01 09:31:00,
2013-06-01 05:36:00,65.1,62.7,30.01,East,85,0.0,2.0,92,0.00,,---,0.00,VWS V14.01,2013-06-01 09:36:00,
2013-06-01 05:40:00,65.1,62.7,30.01,East,85,0.0,2.0,92,0.00,,---,0.00,VWS V14.01,2013-06-01 09:40:00,
2013-06-01 05:41:00,65.0,62.6,30.01,East,85,0.0,0.0,92,0.00,,---,0.00,VWS V14.01,2013-06-01 09:41:00,
2013-06-01 05:46:00,64.9,62.8,30.01,East,85,0.0,1.0,93,0.00,,---,0.00,VWS V14.01,2013-06-01 09:46:00,
2013-06-01 05:50:00,64.9,62.5,30.01,East,85,0.0,1.0,92,0.00,,---,0.00,VWS V14.01,2013-06-01 09:50:00,
2013-06-01 05:51:00,64.8,62.7,30.01,East,85,0.0,0.0,93,0.00,,---,0.00,VWS V14.01,2013-06-01 09:51:00,
2013-06-01 05:56:00,64.5,62.1,30.01,East,85,0.0,0.0,92,0.00,,---,0.00,VWS V14.01,2013-06-01 09:56:00,
2013-06-01 06:00:00,64.4,62.0,30.01,East,85,0.0,0.0,92,0.00,,---,0.00,VWS V14.01,2013-06-01 10:00:00,
2013-06-01 06:01:00,64.3,62.2,30.01,East,85,0.0,0.0,93,0.00,,---,0.00,VWS V14.01,2013-06-01 10:01:00,
2013-06-01 06:06:00,64.2,62.1,30.01,East,85,1.0,1.0,93,0.00,,---,0.00,VWS V14.01,2013-06-01 10:06:00,
2013-06-01 06:10:00,64.2,62.4,30.01,East,85,0.0,1.0,94,0.00,,---,0.00,VWS V14.01,2013-06-01 10:10:00,
2013-06-01 06:11:00,64.2,62.4,30.01,East,79,2.0,2.0,94,0.00,,---,0.00,VWS V14.01,2013-06-01 10:11:00,
2013-06-01 06:16:00,64.3,62.5,30.01,ENE,74,0.0,2.0,94,0.00,,---,0.00,VWS V14.01,2013-06-01 10:16:00,
2013-06-01 06:20:00,64.5,62.7,30.01,ENE,73,0.0,2.0,94,0.00,,---,0.00,VWS V14.01,2013-06-01 10:20:00,
2013-06-01 06:22:00,64.6,62.8,30.01,East,91,1.0,1.0,94,0.00,,---,0.00,VWS V14.01,2013-06-01 10:22:00,
2013-06-01 06:27:00,65.0,63.2,30.01,ENE,74,0.0,2.0,94,0.00,,---,0.00,VWS V14.01,2013-06-01 10:27:00,
2013-06-01 06:30:00,65.4,63.6,30.01,ENE,74,0.0,2.0,94,0.00,,---,0.00,VWS V14.01,2013-06-01 10:30:00,
2013-06-01 06:32:00,65.8,63.7,30.01,ENE,73,0.0,0.0,93,0.00,,---,0.00,VWS V14.01,2013-06-01 10:32:00,
2013-06-01 06:37:00,66.0,63.3,30.01,ENE,74,0.0,0.0,91,0.00,,---,0.00,VWS V14.01,2013-06-01 10:37:00,
2013-06-01 06:40:00,66.2,63.8,30.01,ENE,73,0.0,0.0,92,0.00,,---,0.00,VWS V14.01,2013-06-01 10:40:00,
2013-06-01 06:42:00,66.7,64.3,30.02,ENE,73,0.0,0.0,92,0.00,,---,0.00,VWS V14.01,2013-06-01 10:42:00,
2013-06-01 06:47:00,67.2,64.2,30.02,ENE,73,0.0,0.0,90,0.00,,---,0.00,VWS V14.01,2013-06-01 10:47:00,
2013-06-01 06:50:00,67.3,64.0,30.02,ENE,73,0.0,0.0,89,0.00,,---,0.00,VWS V14.01,2013-06-01 10:50:00,
2013-06-01 06:52:00,67.4,64.1,30.01,ENE,73,0.0,0.0,89,0.00,,---,0.00,VWS V14.01,2013-06-01 10:52:00,
2013-06-01 06:57:00,67.6,64.2,30.02,ENE,74,0.0,0.0,89,0.00,,---,0.00,VWS V14.01,2013-06-01 10:57:00,
2013-06-01 07:00:00,67.9,64.5,30.02,East,86,0.0,4.0,89,0.00,,---,0.00,VWS V14.01,2013-06-01 11:00:00,
2013-06-01 07:02:00,68.3,64.9,30.02,East,86,0.0,0.0,89,0.00,,---,0.00,VWS V14.01,2013-06-01 11:02:00,
2013-06-01 07:07:00,69.3,65.3,30.01,East,86,0.0,0.0,87,0.00,,---,0.00,VWS V14.01,2013-06-01 11:07:00,
2013-06-01 07:10:00,69.6,65.9,30.01,East,89,0.0,0.0,88,0.00,,---,0.00,VWS V14.01,2013-06-01 11:10:00,
2013-06-01 07:12:00,69.6,65.6,30.01,East,87,0.0,1.0,87,0.00,,---,0.00,VWS V14.01,2013-06-01 11:12:00,
2013-06-01 07:17:00,70.0,66.3,30.01,East,86,1.0,2.0,88,0.00,,---,0.00,VWS V14.01,2013-06-01 11:17:00,
2013-06-01 07:20:00,70.1,65.7,30.01,East,83,0.0,2.0,86,0.00,,---,0.00,VWS V14.01,2013-06-01 11:20:00,
2013-06-01 07:22:00,70.4,66.3,30.02,East,94,0.0,1.0,87,0.00,,---,0.00,VWS V14.01,2013-06-01 11:22:00,
2013-06-01 07:27:00,71.4,67.0,30.02,ENE,76,1.0,1.0,86,0.00,,---,0.00,VWS V14.01,2013-06-01 11:27:00,
2013-06-01 07:30:00,71.7,66.3,30.02,ENE,71,0.0,1.0,83,0.00,,---,0.00,VWS V14.01,2013-06-01 11:30:00,
2013-06-01 07:32:00,71.8,66.4,30.02,ENE,71,0.0,1.0,83,0.00,,---,0.00,VWS V14.01,2013-06-01 11:32:00,
2013-06-01 07:37:00,72.3,66.8,30.02,ENE,71,0.0,1.0,83,0.00,,---,0.00,VWS V14.01,2013-06-01 11:37:00,
2013-06-01 07:40:00,72.8,67.0,30.02,ENE,71,0.0,1.0,82,0.00,,---,0.00,VWS V14.01,2013-06-01 11:40:00,
2013-06-01 07:42:00,73.5,67.3,30.02,ENE,71,0.0,1.0,81,0.00,,---,0.00,VWS V14.01,2013-06-01 11:42:00,
2013-06-01 07:47:00,74.0,67.1,30.02,ENE,71,0.0,1.0,79,0.00,,---,0.00,VWS V14.01,2013-06-01 11:47:00,
2013-06-01 07:50:00,74.2,67.3,30.02,ENE,71,1.0,1.0,79,0.00,,---,0.00,VWS V14.01,2013-06-01 11:50:00,
2013-06-01 07:52:00,74.4,67.8,30.02,NNE,30,0.0,1.0,80,0.00,,---,0.00,VWS V14.01,2013-06-01 11:52:00,
2013-06-01 07:57:00,74.8,67.5,30.01,NNE,30,0.0,1.0,78,0.00,,---,0.00,VWS V14.01,2013-06-01 11:57:00,
2013-06-01 08:00:00,75.2,67.5,30.02,NNE,30,0.0,1.0,77,0.00,,---,0.00,VWS V14.01,2013-06-01 12:00:00,
2013-06-01 08:02:00,75.6,67.5,30.02,North,356,0.0,1.0,76,0.00,,---,0.00,VWS V14.01,2013-06-01 12:02:00,
2013-06-01 08:07:00,76.1,67.2,30.02,SW,228,2.0,4.0,74,0.00,,---,0.00,VWS V14.01,2013-06-01 12:07:00,
2013-06-01 08:10:00,76.1,66.4,30.02,SSW,205,5.0,8.0,72,0.00,,---,0.00,VWS V14.01,2013-06-01 12:10:00,
2013-06-01 08:12:00,76.2,66.5,30.02,SSW,211,3.0,6.0,72,0.00,,---,0.00,VWS V14.01,2013-06-01 12:12:00,
2013-06-01 08:17:00,76.5,67.2,30.02,SW,219,4.0,6.0,73,0.00,,---,0.00,VWS V14.01,2013-06-01 12:17:00,
2013-06-01 08:20:00,76.7,67.4,30.02,WNW,285,2.0,6.0,73,0.00,,---,0.00,VWS V14.01,2013-06-01 12:20:00,
2013-06-01 08:22:00,76.8,67.9,30.02,SW,233,1.0,4.0,74,0.00,,---,0.00,VWS V14.01,2013-06-01 12:22:00,
2013-06-01 08:27:00,77.0,67.7,30.02,West,262,1.0,4.0,73,0.00,,---,0.00,VWS V14.01,2013-06-01 12:27:00,
2013-06-01 08:30:00,77.3,68.0,30.02,SSW,198,4.0,4.0,73,0.00,,---,0.00,VWS V14.01,2013-06-01 12:30:00,
2013-06-01 08:32:00,77.5,67.8,30.02,SW,221,5.0,5.0,72,0.00,,---,0.00,VWS V14.01,2013-06-01 12:32:00,
2013-06-01 08:37:00,77.7,67.1,30.02,WSW,252,2.0,6.0,70,0.00,,---,0.00,VWS V14.01,2013-06-01 12:37:00,
2013-06-01 08:40:00,77.7,66.7,30.02,West,280,3.0,6.0,69,0.00,,---,0.00,VWS V14.01,2013-06-01 12:40:00,
2013-06-01 08:42:00,77.6,67.9,30.02,WSW,257,7.0,7.0,72,0.00,,---,0.00,VWS V14.01,2013-06-01 12:42:00,
2013-06-01 08:47:00,77.6,67.9,30.02,WSW,250,1.0,8.0,72,0.00,,---,0.00,VWS V14.01,2013-06-01 12:47:00,
2013-06-01 08:50:00,77.7,67.6,30.02,West,281,3.0,8.0,71,0.00,,---,0.00,VWS V14.01,2013-06-01 12:50:00,
2013-06-01 08:52:00,77.7,67.1,30.02,WSW,253,7.0,7.0,70,0.00,,---,0.00,VWS V14.01,2013-06-01 12:52:00,
2013-06-01 08:57:00,77.7,67.1,30.02,WSW,250,2.0,7.0,70,0.00,,---,0.00,VWS V14.01,2013-06-01 12:57:00,
2013-06-01 09:00:00,77.9,67.8,30.02,West,264,1.0,7.0,71,0.00,,---,0.00,VWS V14.01,2013-06-01 13:00:00,
2013-06-01 09:02:00,78.1,67.5,30.02,WSW,240,2.0,7.0,70,0.00,,---,0.00,VWS V14.01,2013-06-01 13:02:00,
2013-06-01 09:07:00,78.3,67.7,30.02,WSW,253,6.0,7.0,70,0.00,,---,0.00,VWS V14.01,2013-06-01 13:07:00,
2013-06-01 09:10:00,78.3,67.7,30.02,West,271,4.0,7.0,70,0.00,,---,0.00,VWS V14.01,2013-06-01 13:10:00,
2013-06-01 09:12:00,78.4,67.4,30.03,WSW,250,5.0,9.0,69,0.00,,---,0.00,VWS V14.01,2013-06-01 13:12:00,
2013-06-01 09:17:00,78.5,67.5,30.02,West,280,7.0,9.0,69,0.00,,---,0.00,VWS V14.01,2013-06-01 13:17:00,
2013-06-01 09:20:00,78.4,66.6,30.02,West,259,6.0,10.0,67,0.00,,---,0.00,VWS V14.01,2013-06-01 13:20:00,
2013-06-01 09:22:00,78.5,67.1,30.02,West,259,2.0,9.0,68,0.00,,---,0.00,VWS V14.01,2013-06-01 13:22:00,
2013-06-01 09:27:00,78.5,67.1,30.02,West,280,3.0,11.0,68,0.00,,---,0.00,VWS V14.01,2013-06-01 13:27:00,
2013-06-01 09:30:00,78.5,67.1,30.02,WSW,238,2.0,11.0,68,0.00,,---,0.00,VWS V14.01,2013-06-01 13:30:00,
2013-06-01 09:32:00,78.7,68.1,30.02,SW,226,6.0,8.0,70,0.00,,---,0.00,VWS V14.01,2013-06-01 13:32:00,
2013-06-01 09:37:00,78.9,67.9,30.02,WSW,255,5.0,10.0,69,0.00,,---,0.00,VWS V14.01,2013-06-01 13:37:00,
2013-06-01 09:40:00,79.0,68.4,30.02,West,274,5.0,10.0,70,0.00,,---,0.00,VWS V14.01,2013-06-01 13:40:00,
2013-06-01 09:42:00,79.0,67.6,30.02,WSW,250,3.0,9.0,68,0.00,,---,0.00,VWS V14.01,2013-06-01 13:42:00,
2013-06-01 09:47:00,78.9,67.4,30.02,WSW,248,6.0,10.0,68,0.00,,---,0.00,VWS V14.01,2013-06-01 13:47:00,
2013-06-01 09:50:00,79.0,68.4,30.02,WSW,242,6.0,10.0,70,0.00,,---,0.00,VWS V14.01,2013-06-01 13:50:00,
2013-06-01 09:52:00,79.1,67.6,30.02,SW,226,4.0,11.0,68,0.00,,---,0.00,VWS V14.01,2013-06-01 13:52:00,
2013-06-01 09:57:00,79.7,68.6,30.01,SW,228,3.0,11.0,69,0.00,,---,0.00,VWS V14.01,2013-06-01 13:57:00,
2013-06-01 10:00:00,79.9,68.8,30.01,WSW,246,4.0,11.0,69,0.00,,---,0.00,VWS V14.01,2013-06-01 14:00:00,
2013-06-01 10:02:00,80.0,69.3,30.01,SW,233,3.0,7.0,70,0.00,,---,0.00,VWS V14.01,2013-06-01 14:02:00,
2013-06-01 10:07:00,80.5,70.2,30.01,SW,229,4.0,7.0,71,0.00,,---,0.00,VWS V14.01,2013-06-01 14:07:00,
2013-06-01 10:10:00,80.7,69.6,30.01,West,276,2.0,7.0,69,0.00,,---,0.00,VWS V14.01,2013-06-01 14:10:00,
2013-06-01 10:12:00,80.8,68.4,30.01,West,266,5.0,9.0,66,0.00,,---,0.00,VWS V14.01,2013-06-01 14:12:00,
2013-06-01 10:17:00,80.9,68.5,30.01,WSW,256,5.0,9.0,66,0.00,,---,0.00,VWS V14.01,2013-06-01 14:17:00,
2013-06-01 10:20:00,80.9,68.0,30.01,SW,233,5.0,9.0,65,0.00,,---,0.00,VWS V14.01,2013-06-01 14:20:00,
2013-06-01 10:22:00,81.0,67.7,30.02,West,263,3.0,8.0,64,0.00,,---,0.00,VWS V14.01,2013-06-01 14:22:00,
2013-06-01 10:27:00,81.4,70.7,30.01,SW,218,4.0,8.0,70,0.00,,---,0.00,VWS V14.01,2013-06-01 14:27:00,
2013-06-01 10:30:00,81.7,69.7,30.01,South,176,5.0,8.0,67,0.00,,---,0.00,VWS V14.01,2013-06-01 14:30:00,
2013-06-01 10:32:00,82.0,70.8,30.01,WSW,256,6.0,10.0,69,0.00,,---,0.00,VWS V14.01,2013-06-01 14:32:00,
2013-06-01 10:37:00,82.0,69.1,30.01,SSW,195,5.0,10.0,65,0.00,,---,0.00,VWS V14.01,2013-06-01 14:37:00,
2013-06-01 10:40:00,82.1,68.7,30.01,WSW,245,5.0,10.0,64,0.00,,---,0.00,VWS V14.01,2013-06-01 14:40:00,
2013-06-01 10:42:00,82.2,69.3,30.01,SW,228,4.0,7.0,65,0.00,,---,0.00,VWS V14.01,2013-06-01 14:42:00,
2013-06-01 10:47:00,82.3,68.0,30.01,WSW,253,4.0,10.0,62,0.00,,---,0.00,VWS V14.01,2013-06-01 14:47:00,
2013-06-01 10:50:00,82.3,68.5,30.01,SSE,158,2.0,10.0,63,0.00,,---,0.00,VWS V14.01,2013-06-01 14:50:00,
2013-06-01 10:52:00,82.6,69.2,30.01,West,269,4.0,9.0,64,0.00,,---,0.00,VWS V14.01,2013-06-01 14:52:00,
2013-06-01 10:57:00,82.6,68.3,30.01,WSW,243,4.0,9.0,62,0.00,,---,0.00,VWS V14.01,2013-06-01 14:57:00,
2013-06-01 11:00:00,82.7,68.8,30.01,SW,229,4.0,9.0,63,0.00,,---,0.00,VWS V14.01,2013-06-01 15:00:00,
2013-06-01 11:03:00,82.8,68.9,30.01,SSW,194,6.0,9.0,63,0.00,,---,0.00,VWS V14.01,2013-06-01 15:03:00,
2013-06-01 11:08:00,82.8,67.5,30.01,SW,231,8.0,12.0,60,0.00,,---,0.00,VWS V14.01,2013-06-01 15:08:00,
2013-06-01 11:10:00,82.8,67.5,30.01,WSW,248,6.0,12.0,60,0.00,,---,0.00,VWS V14.01,2013-06-01 15:10:00,
2013-06-01 11:13:00,82.9,68.1,30.01,South,180,6.0,9.0,61,0.00,,---,0.00,VWS V14.01,2013-06-01 15:13:00,
2013-06-01 11:18:00,83.4,68.6,30.01,WSW,238,4.0,9.0,61,0.00,,---,0.00,VWS V14.01,2013-06-01 15:18:00,
2013-06-01 11:20:00,83.5,69.1,30.00,West,276,8.0,9.0,62,0.00,,---,0.00,VWS V14.01,2013-06-01 15:20:00,
2013-06-01 11:23:00,83.7,69.8,30.00,SW,222,6.0,8.0,63,0.00,,---,0.00,VWS V14.01,2013-06-01 15:23:00,
2013-06-01 11:28:00,84.1,68.2,30.00,SSE,158,4.0,10.0,59,0.00,,---,0.00,VWS V14.01,2013-06-01 15:28:00,
2013-06-01 11:30:00,84.1,68.2,30.00,SW,232,3.0,10.0,59,0.00,,---,0.00,VWS V14.01,2013-06-01 15:30:00,
2013-06-01 11:33:00,84.2,68.8,30.00,SW,229,5.0,9.0,60,0.00,,---,0.00,VWS V14.01,2013-06-01 15:33:00,
2013-06-01 11:38:00,84.3,68.9,30.00,WSW,245,5.0,9.0,60,0.00,,---,0.00,VWS V14.01,2013-06-01 15:38:00,
2013-06-01 11:40:00,84.4,69.0,30.00,SW,227,6.0,9.0,60,0.00,,---,0.00,VWS V14.01,2013-06-01 15:40:00,
2013-06-01 11:43:00,84.5,68.6,30.00,South,188,6.0,6.0,59,0.00,,---,0.00,VWS V14.01,2013-06-01 15:43:00,
2013-06-01 11:48:00,84.4,70.0,30.00,SW,217,5.0,9.0,62,0.00,,---,0.00,VWS V14.01,2013-06-01 15:48:00,
2013-06-01 11:50:00,84.4,69.0,30.00,SSW,205,4.0,9.0,60,0.00,,---,0.00,VWS V14.01,2013-06-01 15:50:00,
2013-06-01 11:53:00,84.5,69.1,30.00,SSW,205,3.0,7.0,60,0.00,,---,0.00,VWS V14.01,2013-06-01 15:53:00,
2013-06-01 11:58:00,85.0,69.1,30.00,SSW,203,6.0,10.0,59,0.00,,---,0.00,VWS V14.01,2013-06-01 15:58:00,
2013-06-01 12:00:00,84.9,69.5,30.00,SSW,197,4.0,11.0,60,0.00,,---,0.00,VWS V14.01,2013-06-01 16:00:00,
2013-06-01 12:03:00,84.9,68.5,29.99,SW,222,7.0,8.0,58,0.00,,---,0.00,VWS V14.01,2013-06-01 16:03:00,
2013-06-01 12:08:00,84.9,68.5,29.99,West,273,4.0,12.0,58,0.00,,---,0.00,VWS V14.01,2013-06-01 16:08:00,
2013-06-01 12:10:00,85.0,69.1,29.99,SW,231,3.0,12.0,59,0.00,,---,0.00,VWS V14.01,2013-06-01 16:10:00,
2013-06-01 12:13:00,85.2,69.8,29.99,West,278,8.0,8.0,60,0.00,,---,0.00,VWS V14.01,2013-06-01 16:13:00,
2013-06-01 12:18:00,85.4,69.4,29.99,South,181,4.0,10.0,59,0.00,,---,0.00,VWS V14.01,2013-06-01 16:18:00,
2013-06-01 12:20:00,85.6,70.1,29.99,South,169,7.0,10.0,60,0.00,,---,0.00,VWS V14.01,2013-06-01 16:20:00,
2013-06-01 12:23:00,85.9,69.9,29.99,SSW,208,2.0,11.0,59,0.00,,---,0.00,VWS V14.01,2013-06-01 16:23:00,
2013-06-01 12:28:00,85.6,69.1,29.99,SSW,207,6.0,11.0,58,0.00,,---,0.00,VWS V14.01,2013-06-01 16:28:00,
2013-06-01 12:30:00,85.5,69.6,29.99,SSW,212,5.0,11.0,59,0.00,,---,0.00,VWS V14.01,2013-06-01 16:30:00,
2013-06-01 12:33:00,85.5,70.5,29.99,SW,219,5.0,9.0,61,0.00,,---,0.00,VWS V14.01,2013-06-01 16:33:00,
2013-06-01 12:38:00,85.7,68.2,29.99,South,191,7.0,10.0,56,0.00,,---,0.00,VWS V14.01,2013-06-01 16:38:00,
2013-06-01 12:40:00,85.8,68.8,29.98,South,190,3.0,10.0,57,0.00,,---,0.00,VWS V14.01,2013-06-01 16:40:00,
2013-06-01 12:43:00,86.3,69.8,29.98,WSW,253,4.0,10.0,58,0.00,,---,0.00,VWS V14.01,2013-06-01 16:43:00,
2013-06-01 12:48:00,86.3,69.8,29.98,SE,134,4.0,12.0,58,0.00,,---,0.00,VWS V14.01,2013-06-01 16:48:00,
2013-06-01 12:50:00,86.4,69.9,29.98,ESE,110,3.0,12.0,58,0.00,,---,0.00,VWS V14.01,2013-06-01 16:50:00,
2013-06-01 12:53:00,86.7,69.1,29.98,WSW,255,7.0,11.0,56,0.00,,---,0.00,VWS V14.01,2013-06-01 16:53:00,
2013-06-01 12:58:00,86.5,70.5,29.98,SW,221,7.0,11.0,59,0.00,,---,0.00,VWS V14.01,2013-06-01 16:58:00,
2013-06-01 13:00:00,86.5,69.0,29.98,West,264,8.0,11.0,56,0.00,,---,0.00,VWS V14.01,2013-06-01 17:00:00,
2013-06-01 13:03:00,86.3,69.3,29.97,South,181,7.0,12.0,57,0.00,,---,0.00,VWS V14.01,2013-06-01 17:03:00,
2013-06-01 13:08:00,86.8,69.8,29.97,South,187,11.0,12.0,57,0.00,,---,0.00,VWS V14.01,2013-06-01 17:08:00,
2013-06-01 13:10:00,86.9,69.8,29.97,SSW,204,6.0,13.0,57,0.00,,---,0.00,VWS V14.01,2013-06-01 17:10:00,
2013-06-01 13:13:00,86.9,69.3,29.97,South,190,10.0,14.0,56,0.00,,---,0.00,VWS V14.01,2013-06-01 17:13:00,
2013-06-01 13:18:00,87.0,69.9,29.97,SSW,212,11.0,16.0,57,0.00,,---,0.00,VWS V14.01,2013-06-01 17:18:00,
2013-06-01 13:20:00,87.0,68.4,29.97,SSW,201,6.0,16.0,54,0.00,,---,0.00,VWS V14.01,2013-06-01 17:20:00,
2013-06-01 13:23:00,86.9,69.8,29.97,South,170,8.0,10.0,57,0.00,,---,0.00,VWS V14.01,2013-06-01 17:23:00,
2013-06-01 13:28:00,87.1,70.0,29.97,South,186,3.0,12.0,57,0.00,,---,0.00,VWS V14.01,2013-06-01 17:28:00,
2013-06-01 13:30:00,87.1,69.0,29.97,South,186,9.0,12.0,55,0.00,,---,0.00,VWS V14.01,2013-06-01 17:30:00,
2013-06-01 13:33:00,87.2,69.1,29.97,WSW,240,2.0,10.0,55,0.00,,---,0.00,VWS V14.01,2013-06-01 17:33:00,
2013-06-01 13:38:00,87.4,69.8,29.97,SSW,205,4.0,11.0,56,0.00,,---,0.00,VWS V14.01,2013-06-01 17:38:00,
2013-06-01 13:40:00,87.5,69.4,29.97,WSW,246,3.0,11.0,55,0.00,,---,0.00,VWS V14.01,2013-06-01 17:40:00,
2013-06-01 13:43:00,87.6,70.0,29.97,SSW,212,14.0,14.0,56,0.00,,---,0.00,VWS V14.01,2013-06-01 17:43:00,
2013-06-01 13:48:00,87.8,69.6,29.97,West,267,6.0,14.0,55,0.00,,---,0.00,VWS V14.01,2013-06-01 17:48:00,
2013-06-01 13:50:00,87.7,68.5,29.97,SW,224,3.0,14.0,53,0.00,,---,0.00,VWS V14.01,2013-06-01 17:50:00,
2013-06-01 13:53:00,87.7,67.9,29.97,South,191,6.0,13.0,52,0.00,,---,0.00,VWS V14.01,2013-06-01 17:53:00,
2013-06-01 13:58:00,87.7,67.9,29.97,SSW,201,9.0,13.0,52,0.00,,---,0.00,VWS V14.01,2013-06-01 17:58:00,
2013-06-01 14:00:00,87.7,68.5,29.97,SSW,201,6.0,13.0,53,0.00,,---,0.00,VWS V14.01,2013-06-01 18:00:00,
2013-06-01 14:03:00,87.9,68.1,29.97,WSW,253,7.0,13.0,52,0.00,,---,0.00,VWS V14.01,2013-06-01 18:03:00,
2013-06-01 14:08:00,88.1,68.8,29.96,WSW,249,1.0,13.0,53,0.00,,---,0.00,VWS V14.01,2013-06-01 18:08:00,
2013-06-01 14:10:00,88.1,67.7,29.97,SSW,194,5.0,13.0,51,0.00,,---,0.00,VWS V14.01,2013-06-01 18:10:00,
2013-06-01 14:13:00,88.2,66.7,29.97,SSW,198,11.0,11.0,49,0.00,,---,0.00,VWS V14.01,2013-06-01 18:13:00,
2013-06-01 14:18:00,88.3,66.7,29.96,SSW,204,7.0,12.0,49,0.00,,---,0.00,VWS V14.01,2013-06-01 18:18:00,
2013-06-01 14:20:00,88.3,64.9,29.96,South,180,12.0,15.0,46,0.00,,---,0.00,VWS V14.01,2013-06-01 18:20:00,
2013-06-01 14:23:00,88.3,65.5,29.96,SW,222,11.0,13.0,47,0.00,,---,0.00,VWS V14.01,2013-06-01 18:23:00,
2013-06-01 14:28:00,88.1,66.6,29.96,South,184,8.0,15.0,49,0.00,,---,0.00,VWS V14.01,2013-06-01 18:28:00,
2013-06-01 14:30:00,88.1,66.6,29.96,SSW,212,8.0,15.0,49,0.00,,---,0.00,VWS V14.01,2013-06-01 18:30:00,
2013-06-01 14:33:00,88.1,67.7,29.95,SW,225,8.0,11.0,51,0.00,,---,0.00,VWS V14.01,2013-06-01 18:33:00,
2013-06-01 14:38:00,88.1,66.0,29.95,SSW,212,7.0,14.0,48,0.00,,---,0.00,VWS V14.01,2013-06-01 18:38:00,
2013-06-01 14:40:00,88.1,66.0,29.95,WSW,245,4.0,14.0,48,0.00,,---,0.00,VWS V14.01,2013-06-01 18:40:00,
2013-06-01 14:43:00,88.2,68.4,29.95,WSW,250,9.0,11.0,52,0.00,,---,0.00,VWS V14.01,2013-06-01 18:43:00,
2013-06-01 14:48:00,88.3,68.5,29.95,SSW,199,9.0,12.0,52,0.00,,---,0.00,VWS V14.01,2013-06-01 18:48:00,
2013-06-01 14:50:00,88.4,68.6,29.95,SSE,153,8.0,12.0,52,0.00,,---,0.00,VWS V14.01,2013-06-01 18:50:00,
2013-06-01 14:53:00,88.5,68.6,29.95,SW,234,9.0,12.0,52,0.00,,---,0.00,VWS V14.01,2013-06-01 18:53:00,
2013-06-01 14:58:00,88.2,67.8,29.95,WSW,245,9.0,14.0,51,0.00,,---,0.00,VWS V14.01,2013-06-01 18:58:00,
2013-06-01 15:00:00,88.1,69.4,29.95,SSW,203,4.0,14.0,54,0.00,,---,0.00,VWS V14.01,2013-06-01 19:00:00,
2013-06-01 15:03:00,88.1,68.3,29.95,South,187,12.0,14.0,52,0.00,,---,0.00,VWS V14.01,2013-06-01 19:03:00,
2013-06-01 15:08:00,87.7,67.3,29.95,South,187,3.0,14.0,51,0.00,,---,0.00,VWS V14.01,2013-06-01 19:08:00,
2013-06-01 15:10:00,87.6,68.9,29.95,SSW,212,4.0,14.0,54,0.00,,---,0.00,VWS V14.01,2013-06-01 19:10:00,
2013-06-01 15:13:00,87.7,68.5,29.95,SW,224,9.0,11.0,53,0.00,,---,0.00,VWS V14.01,2013-06-01 19:13:00,
2013-06-01 15:18:00,88.2,68.4,29.95,South,183,6.0,13.0,52,0.00,,---,0.00,VWS V14.01,2013-06-01 19:18:00,
2013-06-01 15:20:00,88.2,68.4,29.95,SSW,204,6.0,13.0,52,0.00,,---,0.00,VWS V14.01,2013-06-01 19:20:00,
2013-06-01 15:23:00,87.9,68.1,29.95,SW,219,8.0,13.0,52,0.00,,---,0.00,VWS V14.01,2013-06-01 19:23:00,
2013-06-01 15:28:00,87.3,68.1,29.94,SW,222,3.0,13.0,53,0.00,,---,0.00,VWS V14.01,2013-06-01 19:28:00,
2013-06-01 15:30:00,87.3,68.6,29.94,WSW,250,6.0,13.0,54,0.00,,---,0.00,VWS V14.01,2013-06-01 19:30:00,
2013-06-01 15:33:00,88.0,69.8,29.94,SSW,212,9.0,11.0,55,0.00,,---,0.00,VWS V14.01,2013-06-01 19:33:00,
2013-06-01 15:38:00,88.3,69.6,29.94,SSW,198,8.0,15.0,54,0.00,,---,0.00,VWS V14.01,2013-06-01 19:38:00,
2013-06-01 15:40:00,88.2,68.9,29.94,SSW,194,4.0,15.0,53,0.00,,---,0.00,VWS V14.01,2013-06-01 19:40:00,
2013-06-01 15:43:00,87.6,68.4,29.93,SSE,149,8.0,10.0,53,0.00,,---,0.00,VWS V14.01,2013-06-01 19:43:00,
2013-06-01 15:48:00,86.9,68.3,29.93,SW,217,5.0,12.0,54,0.00,,---,0.00,VWS V14.01,2013-06-01 19:48:00,
2013-06-01 15:50:00,86.8,68.7,29.93,SSW,203,7.0,12.0,55,0.00,,---,0.00,VWS V14.01,2013-06-01 19:50:00,
2013-06-01 15:53:00,86.4,68.9,29.93,WSW,248,3.0,14.0,56,0.00,,---,0.00,VWS V14.01,2013-06-01 19:53:00,
2013-06-01 15:58:00,86.1,68.6,29.93,SW,226,4.0,14.0,56,0.00,,---,0.00,VWS V14.01,2013-06-01 19:58:00,
2013-06-01 16:00:00,86.1,68.1,29.93,SSW,211,2.0,14.0,55,0.00,,---,0.00,VWS V14.01,2013-06-01 20:00:00,
2013-06-01 16:03:00,86.0,68.5,29.93,WSW,243,0.0,5.0,56,0.00,,---,0.00,VWS V14.01,2013-06-01 20:03:00,
2013-06-01 16:08:00,86.2,68.2,29.93,South,186,1.0,5.0,55,0.00,,---,0.00,VWS V14.01,2013-06-01 20:08:00,
2013-06-01 16:10:00,86.3,69.3,29.93,SW,219,3.0,5.0,57,0.00,,---,0.00,VWS V14.01,2013-06-01 20:10:00,
2013-06-01 16:13:00,86.4,69.9,29.93,WSW,250,5.0,6.0,58,0.00,,---,0.00,VWS V14.01,2013-06-01 20:13:00,
2013-06-01 16:18:00,86.6,70.6,29.93,West,263,3.0,6.0,59,0.00,,---,0.00,VWS V14.01,2013-06-01 20:18:00,
2013-06-01 16:20:00,86.7,70.2,29.93,NW,309,2.0,6.0,58,0.00,,---,0.00,VWS V14.01,2013-06-01 20:20:00,
2013-06-01 16:23:00,86.7,70.2,29.93,West,278,5.0,8.0,58,0.00,,---,0.00,VWS V14.01,2013-06-01 20:23:00,
2013-06-01 16:28:00,87.0,69.4,29.93,WNW,297,6.0,8.0,56,0.00,,---,0.00,VWS V14.01,2013-06-01 20:28:00,
2013-06-01 16:30:00,87.0,69.4,29.93,West,276,7.0,8.0,56,0.00,,---,0.00,VWS V14.01,2013-06-01 20:30:00,
2013-06-01 16:33:00,87.2,69.1,29.93,SW,236,3.0,10.0,55,0.00,,---,0.00,VWS V14.01,2013-06-01 20:33:00,
2013-06-01 16:38:00,87.2,69.1,29.93,SW,224,2.0,10.0,55,0.00,,---,0.00,VWS V14.01,2013-06-01 20:38:00,
2013-06-01 16:40:00,87.2,69.1,29.92,SSW,200,4.0,10.0,55,0.00,,---,0.00,VWS V14.01,2013-06-01 20:40:00,
2013-06-01 16:43:00,87.3,70.2,29.93,WSW,257,3.0,5.0,57,0.00,,---,0.00,VWS V14.01,2013-06-01 20:43:00,
2013-06-01 16:48:00,87.3,71.2,29.93,WNW,288,3.0,6.0,59,0.00,,---,0.00,VWS V14.01,2013-06-01 20:48:00,
2013-06-01 16:50:00,87.2,69.6,29.93,WSW,238,4.0,6.0,56,0.00,,---,0.00,VWS V14.01,2013-06-01 20:50:00,
2013-06-01 16:54:00,86.8,69.8,29.93,WSW,249,6.0,9.0,57,0.00,,---,0.00,VWS V14.01,2013-06-01 20:54:00,
2013-06-01 16:59:00,86.8,69.8,29.93,SSW,208,3.0,9.0,57,0.00,,---,0.00,VWS V14.01,2013-06-01 20:59:00,
2013-06-01 17:00:00,86.8,70.8,29.92,SSW,198,2.0,9.0,59,0.00,,---,0.00,VWS V14.01,2013-06-01 21:00:00,
2013-06-01 17:04:00,86.2,69.7,29.93,SW,225,9.0,13.0,58,0.00,,---,0.00,VWS V14.01,2013-06-01 21:04:00,
2013-06-01 17:09:00,85.6,69.6,29.92,SW,235,6.0,13.0,59,0.00,,---,0.00,VWS V14.01,2013-06-01 21:09:00,
2013-06-01 17:10:00,85.6,69.1,29.92,SW,229,5.0,13.0,58,0.00,,---,0.00,VWS V14.01,2013-06-01 21:10:00,
2013-06-01 17:14:00,85.6,70.6,29.92,SW,222,6.0,9.0,61,0.00,,---,0.00,VWS V14.01,2013-06-01 21:14:00,
2013-06-01 17:19:00,85.5,70.0,29.92,SSW,208,4.0,10.0,60,0.00,,---,0.00,VWS V14.01,2013-06-01 21:19:00,
2013-06-01 17:20:00,85.5,70.0,29.92,WSW,241,3.0,10.0,60,0.00,,---,0.00,VWS V14.01,2013-06-01 21:20:00,
2013-06-01 17:24:00,85.9,71.4,29.92,South,181,3.0,7.0,62,0.00,,---,0.00,VWS V14.01,2013-06-01 21:24:00,
2013-06-01 17:29:00,86.6,70.6,29.92,WSW,238,7.0,11.0,59,0.00,,---,0.00,VWS V14.01,2013-06-01 21:29:00,
2013-06-01 17:30:00,86.7,70.7,29.92,South,170,11.0,11.0,59,0.00,,---,0.00,VWS V14.01,2013-06-01 21:30:00,
2013-06-01 17:34:00,87.1,71.0,29.92,SW,224,2.0,11.0,59,0.00,,---,0.00,VWS V14.01,2013-06-01 21:34:00,
2013-06-01 17:39:00,87.3,70.7,29.91,SW,222,9.0,14.0,58,0.00,,---,0.00,VWS V14.01,2013-06-01 21:39:00,
2013-06-01 17:40:00,87.3,70.7,29.91,SW,215,11.0,14.0,58,0.00,,---,0.00,VWS V14.01,2013-06-01 21:40:00,
2013-06-01 17:44:00,87.2,69.1,29.91,SSW,207,5.0,15.0,55,0.00,,---,0.00,VWS V14.01,2013-06-01 21:44:00,
2013-06-01 17:49:00,87.2,70.1,29.91,SSW,204,5.0,15.0,57,0.00,,---,0.00,VWS V14.01,2013-06-01 21:49:00,
2013-06-01 17:50:00,87.2,70.1,29.91,SSW,203,9.0,15.0,57,0.00,,---,0.00,VWS V14.01,2013-06-01 21:50:00,
2013-06-01 17:54:00,87.3,69.2,29.91,South,183,4.0,10.0,55,0.00,,---,0.00,VWS V14.01,2013-06-01 21:54:00,
2013-06-01 17:59:00,87.3,69.2,29.91,SW,222,8.0,13.0,55,0.00,,---,0.00,VWS V14.01,2013-06-01 21:59:00,
2013-06-01 18:00:00,87.3,69.7,29.91,SSW,212,12.0,13.0,56,0.00,,---,0.00,VWS V14.01,2013-06-01 22:00:00,
2013-06-01 18:04:00,87.2,69.6,29.91,West,264,3.0,11.0,56,0.00,,---,0.00,VWS V14.01,2013-06-01 22:04:00,
2013-06-01 18:09:00,87.1,69.0,29.91,SW,231,4.0,12.0,55,0.00,,---,0.00,VWS V14.01,2013-06-01 22:09:00,
2013-06-01 18:10:00,87.2,69.6,29.91,SW,232,4.0,12.0,56,0.00,,---,0.00,VWS V14.01,2013-06-01 22:10:00,
2013-06-01 18:14:00,87.2,69.6,29.90,SW,228,6.0,8.0,56,0.00,,---,0.00,VWS V14.01,2013-06-01 22:14:00,
2013-06-01 18:19:00,87.2,69.6,29.91,SW,226,10.0,13.0,56,0.00,,---,0.00,VWS V14.01,2013-06-01 22:19:00,
2013-06-01 18:20:00,87.2,69.6,29.91,SW,226,9.0,13.0,56,0.00,,---,0.00,VWS V14.01,2013-06-01 22:20:00,
2013-06-01 18:24:00,87.0,68.9,29.91,SSW,208,1.0,10.0,55,0.00,,---,0.00,VWS V14.01,2013-06-01 22:24:00,
2013-06-01 18:29:00,87.0,68.4,29.90,WSW,240,5.0,14.0,54,0.00,,---,0.00,VWS V14.01,2013-06-01 22:29:00,
2013-06-01 18:30:00,87.0,68.4,29.90,SSW,212,7.0,14.0,54,0.00,,---,0.00,VWS V14.01,2013-06-01 22:30:00,
2013-06-01 18:34:00,86.9,68.3,29.91,South,169,8.0,12.0,54,0.00,,---,0.00,VWS V14.01,2013-06-01 22:34:00,
2013-06-01 18:39:00,86.6,68.5,29.90,SW,224,9.0,14.0,55,0.00,,---,0.00,VWS V14.01,2013-06-01 22:39:00,
2013-06-01 18:40:00,86.6,68.5,29.90,South,170,8.0,14.0,55,0.00,,---,0.00,VWS V14.01,2013-06-01 22:40:00,
2013-06-01 18:44:00,86.4,67.8,29.90,WSW,257,7.0,13.0,54,0.00,,---,0.00,VWS V14.01,2013-06-01 22:44:00,
2013-06-01 18:49:00,86.3,68.2,29.91,SSW,204,3.0,13.0,55,0.00,,---,0.00,VWS V14.01,2013-06-01 22:49:00,
2013-06-01 18:50:00,86.3,68.2,29.91,SW,229,3.0,13.0,55,0.00,,---,0.00,VWS V14.01,2013-06-01 22:50:00,
2013-06-01 18:54:00,86.1,68.6,29.91,SW,215,7.0,10.0,56,0.00,,---,0.00,VWS V14.01,2013-06-01 22:54:00,
2013-06-01 18:59:00,86.1,68.6,29.91,SSE,158,2.0,10.0,56,0.00,,---,0.00,VWS V14.01,2013-06-01 22:59:00,
2013-06-01 19:00:00,86.1,69.1,29.91,SSW,205,3.0,10.0,57,0.00,,---,0.00,VWS V14.01,2013-06-01 23:00:00,
2013-06-01 19:04:00,86.1,68.6,29.91,SSW,208,2.0,7.0,56,0.00,,---,0.00,VWS V14.01,2013-06-01 23:04:00,
2013-06-01 19:09:00,86.0,68.5,29.91,WSW,240,3.0,8.0,56,0.00,,---,0.00,VWS V14.01,2013-06-01 23:09:00,
2013-06-01 19:10:00,86.0,68.5,29.91,West,275,2.0,8.0,56,0.00,,---,0.00,VWS V14.01,2013-06-01 23:10:00,
2013-06-01 19:14:00,85.9,68.4,29.91,WSW,253,5.0,9.0,56,0.00,,---,0.00,VWS V14.01,2013-06-01 23:14:00,
2013-06-01 19:19:00,85.7,68.2,29.91,SW,219,4.0,9.0,56,0.00,,---,0.00,VWS V14.01,2013-06-01 23:19:00,
2013-06-01 19:20:00,85.7,68.2,29.91,SSW,201,3.0,9.0,56,0.00,,---,0.00,VWS V14.01,2013-06-01 23:20:00,
2013-06-01 19:24:00,85.5,68.0,29.91,South,173,7.0,10.0,56,0.00,,---,0.00,VWS V14.01,2013-06-01 23:24:00,
2013-06-01 19:29:00,85.2,67.8,29.91,SW,236,5.0,10.0,56,0.00,,---,0.00,VWS V14.01,2013-06-01 23:29:00,
2013-06-01 19:30:00,85.2,67.8,29.91,WSW,238,4.0,10.0,56,0.00,,---,0.00,VWS V14.01,2013-06-01 23:30:00,
2013-06-01 19:34:00,85.0,68.1,29.91,SSW,207,7.0,7.0,57,0.00,,---,0.00,VWS V14.01,2013-06-01 23:34:00,
2013-06-01 19:39:00,84.8,67.4,29.91,SSW,197,8.0,13.0,56,0.00,,---,0.00,VWS V14.01,2013-06-01 23:39:00,
2013-06-01 19:40:00,84.8,67.4,29.91,SSW,197,8.0,13.0,56,0.00,,---,0.00,VWS V14.01,2013-06-01 23:40:00,
2013-06-01 19:44:00,84.6,68.2,29.91,SSW,203,3.0,8.0,58,0.00,,---,0.00,VWS V14.01,2013-06-01 23:44:00,
2013-06-01 19:49:00,84.3,67.4,29.91,SSE,162,2.0,9.0,57,0.00,,---,0.00,VWS V14.01,2013-06-01 23:49:00,
2013-06-01 19:50:00,84.3,67.4,29.91,SSE,162,2.0,9.0,57,0.00,,---,0.00,VWS V14.01,2013-06-01 23:50:00,
2013-06-01 19:54:00,84.0,67.7,29.91,SSW,197,2.0,7.0,58,0.00,,---,0.00,VWS V14.01,2013-06-01 23:54:00,
2013-06-01 19:59:00,83.6,66.8,29.91,SW,231,6.0,10.0,57,0.00,,---,0.00,VWS V14.01,2013-06-01 23:59:00,
2013-06-01 20:00:00,83.6,66.8,29.91,SW,231,6.0,10.0,57,0.00,,---,0.00,VWS V14.01,2013-06-02 00:00:00,
2013-06-01 20:04:00,83.3,66.5,29.91,SSE,155,4.0,12.0,57,0.00,,---,0.00,VWS V14.01,2013-06-02 00:04:00,
2013-06-01 20:09:00,82.8,66.5,29.91,SSW,203,4.0,12.0,58,0.00,,---,0.00,VWS V14.01,2013-06-02 00:09:00,
2013-06-01 20:10:00,82.8,66.5,29.91,SSW,203,4.0,12.0,58,0.00,,---,0.00,VWS V14.01,2013-06-02 00:10:00,
2013-06-01 20:14:00,82.4,66.2,29.91,South,170,4.0,10.0,58,0.00,,---,0.00,VWS V14.01,2013-06-02 00:14:00,
2013-06-01 20:19:00,82.1,65.9,29.91,SSW,204,6.0,10.0,58,0.00,,---,0.00,VWS V14.01,2013-06-02 00:19:00,
2013-06-01 20:20:00,82.1,65.9,29.91,SSW,204,6.0,10.0,58,0.00,,---,0.00,VWS V14.01,2013-06-02 00:20:00,
2013-06-01 20:24:00,81.8,66.1,29.91,SSW,205,4.0,11.0,59,0.00,,---,0.00,VWS V14.01,2013-06-02 00:24:00,
2013-06-01 20:29:00,81.6,65.4,29.91,SSW,204,6.0,11.0,58,0.00,,---,0.00,VWS V14.01,2013-06-02 00:29:00,
2013-06-01 20:30:00,81.6,65.4,29.91,SSW,204,6.0,11.0,58,0.00,,---,0.00,VWS V14.01,2013-06-02 00:30:00,
2013-06-01 20:34:00,81.4,65.7,29.91,SSW,203,1.0,7.0,59,0.00,,---,0.00,VWS V14.01,2013-06-02 00:34:00,
2013-06-01 20:39:00,81.2,65.5,29.91,SSW,207,6.0,6.0,59,0.00,,---,0.00,VWS V14.01,2013-06-02 00:39:00,
2013-06-01 20:40:00,81.2,65.5,29.91,SW,219,6.0,8.0,59,0.00,,---,0.00,VWS V14.01,2013-06-02 00:40:00,
2013-06-01 20:44:00,81.1,65.4,29.92,SW,221,2.0,11.0,59,0.00,,---,0.00,VWS V14.01,2013-06-02 00:44:00,
2013-06-01 20:49:00,81.1,64.9,29.92,SW,219,7.0,11.0,58,0.00,,---,0.00,VWS V14.01,2013-06-02 00:49:00,
2013-06-01 20:50:00,81.1,64.9,29.92,SW,219,7.0,11.0,58,0.00,,---,0.00,VWS V14.01,2013-06-02 00:50:00,
2013-06-01 20:54:00,81.0,64.8,29.92,SW,217,6.0,9.0,58,0.00,,---,0.00,VWS V14.01,2013-06-02 00:54:00,
2013-06-01 20:59:00,80.9,64.8,29.92,SSW,201,8.0,9.0,58,0.00,,---,0.00,VWS V14.01,2013-06-02 00:59:00,
2013-06-01 21:00:00,80.9,64.8,29.92,SSW,201,8.0,9.0,58,0.00,,---,0.00,VWS V14.01,2013-06-02 01:00:00,
2013-06-01 21:04:00,80.9,64.8,29.92,SW,221,4.0,10.0,58,0.00,,---,0.00,VWS V14.01,2013-06-02 01:04:00,
2013-06-01 21:09:00,80.8,64.7,29.92,South,188,7.0,11.0,58,0.00,,---,0.00,VWS V14.01,2013-06-02 01:09:00,
2013-06-01 21:10:00,80.8,64.7,29.92,South,188,7.0,11.0,58,0.00,,---,0.00,VWS V14.01,2013-06-02 01:10:00,
2013-06-01 21:14:00,80.7,64.1,29.91,WSW,238,4.0,10.0,57,0.00,,---,0.00,VWS V14.01,2013-06-02 01:14:00,
2013-06-01 21:19:00,80.7,64.1,29.92,West,276,6.0,8.0,57,0.00,,---,0.00,VWS V14.01,2013-06-02 01:19:00,
2013-06-01 21:20:00,80.7,64.1,29.92,WSW,238,8.0,10.0,57,0.00,,---,0.00,VWS V14.01,2013-06-02 01:20:00,
2013-06-01 21:24:00,80.6,64.0,29.91,SSW,207,4.0,10.0,57,0.00,,---,0.00,VWS V14.01,2013-06-02 01:24:00,
2013-06-01 21:29:00,80.4,64.3,29.92,SSW,195,2.0,3.0,58,0.00,,---,0.00,VWS V14.01,2013-06-02 01:29:00,
2013-06-01 21:30:00,80.4,64.3,29.92,SW,221,3.0,10.0,58,0.00,,---,0.00,VWS V14.01,2013-06-02 01:30:00,
2013-06-01 21:34:00,80.1,64.5,29.92,SW,215,6.0,9.0,59,0.00,,---,0.00,VWS V14.01,2013-06-02 01:34:00,
2013-06-01 21:39:00,80.1,64.5,29.92,SSW,206,4.0,4.0,59,0.00,,---,0.00,VWS V14.01,2013-06-02 01:39:00,
2013-06-01 21:40:00,80.1,64.5,29.92,SW,222,3.0,9.0,59,0.00,,---,0.00,VWS V14.01,2013-06-02 01:40:00,
2013-06-01 21:44:00,80.0,64.4,29.92,SSW,206,4.0,10.0,59,0.00,,---,0.00,VWS V14.01,2013-06-02 01:44:00,
2013-06-01 21:49:00,79.9,64.3,29.92,SW,224,1.0,3.0,59,0.00,,---,0.00,VWS V14.01,2013-06-02 01:49:00,
2013-06-01 21:50:00,79.9,64.3,29.92,SSW,203,3.0,10.0,59,0.00,,---,0.00,VWS V14.01,2013-06-02 01:50:00,
2013-06-01 21:54:00,79.8,64.2,29.92,SSW,201,7.0,11.0,59,0.00,,---,0.00,VWS V14.01,2013-06-02 01:54:00,
2013-06-01 21:59:00,79.9,64.3,29.92,West,264,5.0,5.0,59,0.00,,---,0.00,VWS V14.01,2013-06-02 01:59:00,
2013-06-01 22:00:00,79.9,64.3,29.92,WSW,240,3.0,16.0,59,0.00,,---,0.00,VWS V14.01,2013-06-02 02:00:00,
2013-06-01 22:04:00,79.8,64.2,29.92,SSW,212,6.0,14.0,59,0.00,,---,0.00,VWS V14.01,2013-06-02 02:04:00,
2013-06-01 22:09:00,79.7,64.6,29.92,WSW,252,5.0,5.0,60,0.00,,---,0.00,VWS V14.01,2013-06-02 02:09:00,
2013-06-01 22:10:00,79.7,64.6,29.92,SW,215,5.0,14.0,60,0.00,,---,0.00,VWS V14.01,2013-06-02 02:10:00,
2013-06-01 22:14:00,79.7,64.1,29.92,WSW,248,2.0,12.0,59,0.00,,---,0.00,VWS V14.01,2013-06-02 02:14:00,
2013-06-01 22:19:00,79.7,64.1,29.92,SW,216,9.0,11.0,59,0.00,,---,0.00,VWS V14.01,2013-06-02 02:19:00,
2013-06-01 22:20:00,79.7,64.1,29.92,WSW,256,8.0,14.0,59,0.00,,---,0.00,VWS V14.01,2013-06-02 02:20:00,
2013-06-01 22:24:00,79.7,64.1,29.92,West,267,9.0,15.0,59,0.00,,---,0.00,VWS V14.01,2013-06-02 02:24:00,
2013-06-01 22:29:00,79.6,64.5,29.92,SW,228,4.0,6.0,60,0.00,,---,0.00,VWS V14.01,2013-06-02 02:29:00,
2013-06-01 22:30:00,79.6,64.5,29.92,SSW,209,6.0,15.0,60,0.00,,---,0.00,VWS V14.01,2013-06-02 02:30:00,
2013-06-01 22:34:00,79.5,64.4,29.93,SW,228,8.0,13.0,60,0.00,,---,0.00,VWS V14.01,2013-06-02 02:34:00,
2013-06-01 22:39:00,79.3,64.7,29.93,SW,228,8.0,9.0,61,0.00,,---,0.00,VWS V14.01,2013-06-02 02:39:00,
2013-06-01 22:40:00,79.3,64.7,29.92,WSW,240,8.0,13.0,61,0.00,,---,0.00,VWS V14.01,2013-06-02 02:40:00,
2013-06-01 22:44:00,79.2,64.6,29.92,SW,234,8.0,12.0,61,0.00,,---,0.00,VWS V14.01,2013-06-02 02:44:00,
2013-06-01 22:49:00,79.0,64.9,29.92,West,270,4.0,6.0,62,0.00,,---,0.00,VWS V14.01,2013-06-02 02:49:00,
2013-06-01 22:50:00,79.0,64.9,29.92,SW,228,6.0,12.0,62,0.00,,---,0.00,VWS V14.01,2013-06-02 02:50:00,
2013-06-01 22:54:00,78.8,64.7,29.92,SW,221,4.0,13.0,62,0.00,,---,0.00,VWS V14.01,2013-06-02 02:54:00,
2013-06-01 22:59:00,78.7,65.1,29.92,WSW,246,7.0,9.0,63,0.00,,---,0.00,VWS V14.01,2013-06-02 02:59:00,
2013-06-01 23:00:00,78.7,65.1,29.92,SW,216,6.0,13.0,63,0.00,,---,0.00,VWS V14.01,2013-06-02 03:00:00,
2013-06-01 23:04:00,78.5,64.9,29.92,SSW,207,8.0,12.0,63,0.00,,---,0.00,VWS V14.01,2013-06-02 03:04:00,
2013-06-01 23:09:00,78.4,64.8,29.92,WSW,241,5.0,8.0,63,0.00,,---,0.00,VWS V14.01,2013-06-02 03:09:00,
2013-06-01 23:10:00,78.4,64.8,29.92,West,281,8.0,12.0,63,0.00,,---,0.00,VWS V14.01,2013-06-02 03:10:00,
2013-06-01 23:14:00,78.1,64.9,29.92,SW,226,7.0,13.0,64,0.00,,---,0.00,VWS V14.01,2013-06-02 03:14:00,
2013-06-01 23:19:00,77.9,64.8,29.92,SW,229,6.0,7.0,64,0.00,,---,0.00,VWS V14.01,2013-06-02 03:19:00,
2013-06-01 23:20:00,77.9,64.8,29.92,WSW,242,7.0,14.0,64,0.00,,---,0.00,VWS V14.01,2013-06-02 03:20:00,
2013-06-01 23:25:00,77.9,64.8,29.92,WSW,242,6.0,19.0,64,0.00,,---,0.00,VWS V14.01,2013-06-02 03:25:00,
2013-06-01 23:30:00,77.7,64.6,29.92,WSW,238,7.0,12.0,64,0.00,,---,0.00,VWS V14.01,2013-06-02 03:30:00,
2013-06-01 23:35:00,77.8,64.7,29.92,SSW,208,9.0,14.0,64,0.00,,---,0.00,VWS V14.01,2013-06-02 03:35:00,
2013-06-01 23:40:00,77.6,64.9,29.92,SSW,210,10.0,10.0,65,0.00,,---,0.00,VWS V14.01,2013-06-02 03:40:00,
2013-06-01 23:45:00,77.5,64.8,29.92,WSW,243,10.0,12.0,65,0.00,,---,0.00,VWS V14.01,2013-06-02 03:45:00,
2013-06-01 23:50:00,77.6,64.9,29.92,SW,228,4.0,4.0,65,0.00,,---,0.00,VWS V14.01,2013-06-02 03:50:00,
2013-06-01 23:55:00,77.5,64.8,29.92,WSW,243,9.0,15.0,65,0.00,,---,0.00,VWS V14.01,2013-06-02 03:55:00,